GW6491 Weather Reports


time (UTC)temp
F
wind
direction
speed
knots
gust
knots
rain 1hr
in
rain 24hr
in
rain mn
in
humidity
%
barometer
mb
20260502194951 80 0 0.9 0.9 0.00 0.01 0.01 100 1009.0
20260502194448 80 0 0.9 0.9 0.00 0.01 0.01 100 1009.0
20260502193944 80 0 0.9 0.9 0.00 0.01 0.01 100 1009.0
20260502193442 80 0 0.0 0.9 0.00 0.01 0.01 100 1009.0
20260502192937 80 0 0.0 0.0 0.00 0.01 0.01 100 1009.0
20260502192434 80 0 0.0 0.9 0.00 0.01 0.01 100 1009.0
20260502191931 80 0 0.0 0.0 0.00 0.01 0.01 100 1008.6
20260502191429 80 0 0.0 0.0 0.00 0.01 0.01 100 1008.6
20260502190926 80 0 0.0 0.0 0.00 0.01 0.01 100 1008.6
20260502190423 80 0 0.0 0.0 0.00 0.01 0.01 100 1008.6
20260502185920 80 0 0.0 0.0 0.00 0.01 0.01 100 1008.6
20260502185415 80 0 0.0 0.0 0.00 0.01 0.01 100 1008.6
20260502184912 80 0 0.0 0.0 0.00 0.01 0.01 100 1008.6
20260502184408 80 0 0.0 0.0 0.00 0.01 0.01 100 1008.6
20260502183905 80 0 0.0 0.9 0.00 0.01 0.01 100 1008.6
20260502183400 80 0 0.0 0.0 0.00 0.01 0.01 100 1008.6
20260502182856 80 0 0.0 0.0 0.00 0.01 0.01 100 1008.6
20260502182352 80 0 0.0 0.0 0.00 0.01 0.01 100 1008.3
20260502181848 80 0 0.0 1.7 0.00 0.01 0.01 100 1008.3
20260502181347 80 0 0.9 2.6 0.00 0.01 0.01 100 1008.6
20260502180845 80 0 0.0 0.0 0.00 0.01 0.01 100 1008.6
20260502180342 80 0 0.0 0.9 0.00 0.01 0.01 100 1008.6
20260502170300 80 0 0.9 0.9 0.00 0.01 0.01 100 1008.6
20260502164248 80 0 1.7 1.7 0.00 0.01 0.01 100 1009.0
20260502163743 80 0 0.9 1.7 0.00 0.01 0.01 100 1009.0
20260502163240 80 0 0.0 0.9 0.00 0.01 0.01 100 1009.0
20260502162737 80 0 0.0 0.9 0.00 0.01 0.01 100 1009.0
20260502162234 80 0 0.9 1.7 0.00 0.01 0.01 100 1009.0
20260502161731 80 0 0.9 0.9 0.00 0.01 0.01 100 1009.0
20260502161227 80 0 0.0 0.9 0.00 0.01 0.01 100 1009.0
20260502160726 80 0 0.9 1.7 0.00 0.01 0.01 100 1009.0
20260502160225 80 0 1.7 1.7 0.00 0.01 0.01 100 1009.0
20260502152154 80 0 0.0 0.0 0.00 0.00 0.00 100 1009.6
20260502151652 80 0 0.0 0.0 0.00 0.00 0.00 100 1009.6
20260502151149 80 0 0.9 0.9 0.00 0.00 0.00 100 1009.6
20260502150646 80 0 0.9 1.7 0.00 0.00 0.00 100 1009.6
20260502150142 80 0 0.0 1.7 0.00 0.00 0.00 100 1009.6
20260502140106 80 0 0.0 0.0 0.00 0.00 0.00 100 1010.3
20260502130531 80 0 1.7 2.6 0.00 0.25 0.25 100 1011.3
20260502123514 80 0 0.0 0.9 0.00 0.25 0.25 100 1011.3
20260502123011 80 0 0.0 1.7 0.00 0.25 0.25 100 1011.3
20260502122507 80 0 0.9 1.7 0.00 0.25 0.25 100 1011.3
20260502122005 80 0 1.7 3.5 0.00 0.25 0.25 100 1011.3
20260502121502 80 0 0.9 2.6 0.00 0.25 0.25 100 1011.3
20260502121000 80 0 1.7 4.3 0.00 0.25 0.25 100 1011.3
20260502120456 80 0 2.6 6.1 0.00 0.25 0.25 100 1011.3
20260502115450 80 0 2.6 5.2 0.00 0.25 0.25 100 1011.3
20260502114946 80 0 2.6 6.1 0.00 0.25 0.25 100 1011.3
20260502114443 80 0 5.2 9.6 0.00 0.25 0.25 100 1011.3
20260502113940 80 0 1.7 8.7 0.00 0.25 0.25 100 1011.3
20260502113438 80 0 0.0 0.9 0.47 0.24 0.24 100 1011.3
20260502112936 80 0 0.0 0.0 0.00 0.24 0.24 100 1011.3
20260502112433 80 0 0.0 0.0 0.00 0.24 0.24 100 1011.3
20260502111931 80 0 0.0 0.0 0.00 0.24 0.24 100 1011.0
20260502111428 80 0 0.0 0.0 0.00 0.24 0.24 100 1011.0
20260502110925 80 0 0.0 0.0 0.00 0.24 0.24 100 1011.0
20260502110423 80 0 0.0 0.0 0.00 0.24 0.24 100 1011.0
20260502105920 80 0 0.0 0.0 0.00 0.24 0.24 100 1011.0
20260502105417 80 0 0.0 0.0 0.00 0.24 0.24 100 1011.0
20260502104915 80 0 0.0 0.0 0.00 0.24 0.24 100 1011.0
20260502104412 80 0 0.0 0.0 0.00 0.24 0.24 100 1011.0
20260502103909 80 0 0.0 0.0 0.00 0.24 0.24 100 1011.0
20260502103407 80 0 0.0 0.0 0.00 0.24 0.24 100 1011.0
20260502102904 80 0 0.0 0.0 0.00 0.24 0.24 100 1010.7
20260502102400 80 0 0.0 0.0 0.00 0.24 0.24 100 1010.7
20260502101858 80 0 0.0 0.0 0.00 0.24 0.24 100 1010.7
20260502101356 80 0 0.0 0.9 0.00 0.24 0.24 100 1010.7
20260502100854 80 0 0.0 0.9 0.00 0.24 0.24 100 1010.7
20260502100353 80 0 0.0 0.0 0.00 0.24 0.24 100 1010.7
20260502091326 80 0 0.0 0.0 0.00 0.24 0.24 100 1010.0
20260502090824 80 0 0.0 0.0 0.00 0.24 0.24 100 1010.0
20260502090320 80 0 0.0 0.0 0.00 0.24 0.24 100 1010.0
20260502071216 80 0 0.9 2.6 0.00 0.24 0.24 100 1008.3
20260502070714 80 0 0.9 1.7 0.00 0.24 0.24 100 1008.0
20260502070211 80 0 0.0 0.9 0.00 0.24 0.24 100 1008.0
20260502065710 80 0 0.0 0.0 0.00 0.24 0.24 100 1008.0
20260502065207 80 0 0.0 0.0 0.00 0.24 0.24 100 1008.0
20260502064706 80 0 0.0 0.0 0.00 0.24 0.24 100 1008.0
20260502064202 80 0 1.7 2.6 0.00 0.24 0.24 100 1007.6
20260502063700 80 0 0.9 3.5 0.00 0.24 0.24 100 1007.6
20260502063158 80 0 1.7 2.6 0.00 0.24 0.24 100 1007.6
20260502062655 80 0 0.9 1.7 0.00 0.24 0.24 100 1007.6
20260502062152 80 0 0.0 1.7 0.00 0.24 0.24 100 1007.6
20260502061651 80 0 0.9 3.5 0.00 0.24 0.24 100 1007.6
20260502061148 80 0 0.0 0.0 0.00 0.24 0.24 100 1008.0
20260502060648 80 0 0.9 2.6 0.00 0.24 0.24 100 1008.0
20260502060145 80 0 0.0 0.9 0.00 0.24 0.24 100 1008.0
20260502055643 80 0 0.9 1.7 0.00 0.24 0.24 100 1007.6
20260502055140 80 0 0.9 3.5 0.00 0.24 0.24 100 1007.6
20260502054639 80 0 2.6 5.2 0.00 0.24 0.24 100 1008.0
20260502054136 80 0 0.9 3.5 0.00 0.24 0.24 100 1008.0
20260502053633 80 0 2.6 5.2 0.00 0.24 0.24 100 1008.0
20260502053131 80 0 0.0 1.7 0.00 0.24 0.24 100 1008.0
20260502052629 80 0 1.7 3.5 0.00 0.24 0.24 100 1008.0
20260502052127 80 0 3.5 5.2 0.00 0.24 0.24 100 1008.3
20260502051625 80 0 1.7 2.6 0.00 0.24 0.24 100 1008.3
20260502051123 80 0 1.7 4.3 0.00 0.24 0.24 100 1008.3
20260502050618 80 0 2.6 5.2 0.00 0.24 0.24 100 1008.3
20260502050115 80 0 1.7 3.5 0.00 0.24 0.24 100 1008.6
20260502045611 80 0 0.9 3.5 0.00 0.24 0.24 100 1008.6
20260502045109 80 0 1.7 2.6 0.00 0.24 0.24 100 1008.3
20260502044605 80 0 4.3 7.0 0.00 0.24 0.24 100 1008.3
20260502044102 80 0 2.6 6.1 0.00 0.24 0.24 100 1008.3
20260502043600 80 0 5.2 7.8 0.00 0.24 0.24 100 1008.6
20260502043056 80 0 6.1 12.2 0.00 0.24 0.24 100 1008.6
20260502042550 80 0 5.2 9.6 1.42 0.20 0.20 100 1008.6
20260502042048 80 0 4.3 9.6 4.72 0.04 0.04 100 1009.0
20260502041546 80 0 3.5 9.6 0.00 0.01 0.01 100 1008.6
20260502041043 80 0 5.2 8.7 0.00 0.01 0.01 100 1008.6
20260502040539 80 0 4.3 7.0 0.00 0.01 0.01 100 1008.6
20260502040036 80 0 3.5 6.1 0.00 0.01 0.01 100 1008.6
20260502035532 80 0 5.2 8.7 0.00 0.01 0.01 100 1008.6
20260502035030 80 0 4.3 7.8 0.00 0.01 0.01 100 1008.6
20260502034528 80 0 0.9 3.5 0.00 0.01 0.01 100 1009.0
20260502034026 80 0 2.6 5.2 0.00 0.01 0.01 100 1009.0
20260502033524 80 0 3.5 7.0 0.00 0.01 0.01 100 1009.0
20260502033021 80 0 3.5 8.7 0.00 0.01 0.01 100 1009.0
20260502032516 80 0 2.6 7.0 0.00 0.01 0.01 100 1009.0
20260502032014 80 0 0.9 3.5 0.00 0.01 0.01 100 1009.0
20260502031512 80 0 2.6 5.2 0.00 0.01 0.01 100 1009.0
20260502031009 80 0 0.9 2.6 0.00 0.01 0.01 100 1009.3
20260502030508 80 0 3.5 6.1 0.00 0.01 0.01 100 1009.3
20260502030005 80 0 3.5 7.0 0.00 0.00 0.00 100 1009.6
20260502025502 80 0 2.6 7.8 0.00 0.00 0.00 100 1009.6
20260502025000 80 0 3.5 6.1 0.00 0.00 0.00 100 1009.6
20260502024458 80 0 4.3 7.0 0.00 0.00 0.00 100 1009.6
20260502023956 80 0 4.3 8.7 0.00 0.00 0.00 100 1009.6
20260502023453 80 0 4.3 7.8 0.00 0.00 0.00 100 1009.6
20260502022950 80 0 4.3 9.6 0.00 0.00 0.00 100 1010.0
20260502022447 80 0 3.5 7.8 0.00 0.00 0.00 100 1010.0
20260502021944 80 0 4.3 7.8 0.00 0.00 0.00 100 1009.6
20260502021441 80 0 5.2 10.4 0.00 0.00 0.00 100 1009.6
20260502020938 80 0 6.1 11.3 0.00 0.00 0.00 100 1010.0
20260502020436 80 0 1.7 6.1 0.00 0.00 0.00 100 1010.0
20260502015932 80 0 3.5 7.8 0.00 0.00 0.00 100 1010.3
20260502015431 80 0 2.6 5.2 0.00 0.00 0.00 100 1010.3
20260502014927 80 0 2.6 6.1 0.00 0.00 0.00 100 1010.3
20260502014425 80 0 4.3 7.8 0.00 0.00 0.00 100 1010.3
20260502013921 80 0 3.5 8.7 0.00 0.00 0.00 100 1010.7
20260502013416 80 0 3.5 6.1 0.00 0.00 0.00 100 1010.7
20260502012913 80 0 3.5 8.7 0.00 0.00 0.00 100 1010.7
20260502012411 80 0 6.1 11.3 0.00 0.00 0.00 100 1010.7
20260502011908 80 0 4.3 8.7 0.00 0.00 0.00 100 1010.7
20260502011403 80 0 6.1 9.6 0.00 0.00 0.00 100 1010.7
20260502010901 80 0 6.1 13.0 0.00 0.00 0.00 100 1010.7
20260502010357 80 0 5.2 11.3 0.00 0.00 0.00 100 1010.7
20260502005854 80 0 7.8 13.9 0.00 0.00 0.00 100 1010.7
20260502005352 80 0 3.5 8.7 0.00 0.00 0.00 100 1010.7
20260502004849 80 0 7.0 13.0 0.00 0.00 0.00 100 1010.7
20260502004345 80 0 2.6 7.0 0.00 0.00 0.00 100 1010.7
20260502003843 80 0 4.3 12.2 0.00 0.00 0.00 100 1010.7
20260502003340 80 0 6.1 13.0 0.00 0.00 0.00 100 1010.7
20260502002836 80 0 7.0 13.0 0.00 0.00 0.00 100 1010.7
20260502002333 80 0 0.9 6.1 0.00 0.00 0.00 100 1010.7
20260502001831 80 0 4.3 8.7 0.00 0.00 0.00 100 1010.7
20260502001328 80 0 5.2 9.6 0.00 0.00 0.00 100 1010.7
20260502000826 80 0 6.1 11.3 0.00 0.00 0.00 100 1011.0
20260502000325 80 0 2.6 8.7 0.00 0.00 0.00 100 1010.7
20260501235819 80 0 3.5 5.2 0.00 0.00 0.00 100 1010.7
20260501235315 80 0 3.5 7.8 0.00 0.00 0.00 100 1011.0
20260501234811 80 0 1.7 5.2 0.00 0.00 0.00 100 1011.0
20260501234308 80 0 3.5 7.8 0.00 0.00 0.00 100 1010.7
20260501233807 80 0 4.3 9.6 0.00 0.00 0.00 100 1010.7
20260501233304 80 0 1.7 5.2 0.00 0.00 0.00 100 1011.0
20260501232759 80 0 1.7 5.2 0.00 0.00 0.00 100 1011.0
20260501232256 80 0 4.3 11.3 0.00 0.00 0.00 100 1011.0
20260501231754 80 0 1.7 4.3 0.00 0.00 0.00 100 1011.0
20260501231252 80 0 4.3 9.6 0.00 0.00 0.00 100 1011.0
20260501230750 80 0 2.6 7.8 0.00 0.00 0.00 100 1011.0
20260501230248 80 0 6.1 13.9 0.00 0.00 0.00 100 1011.0
20260501225745 80 0 8.7 16.5 0.00 0.00 0.00 100 1011.0
20260501225243 80 0 7.8 17.4 0.00 0.00 0.00 100 1011.0
20260501224738 80 0 3.5 9.6 0.00 0.00 0.00 100 1011.0
20260501224237 80 0 2.6 6.1 0.00 0.00 0.00 100 1011.0
20260501223732 80 0 0.9 5.2 0.00 0.00 0.00 100 1010.7
20260501223229 80 0 1.7 7.8 0.00 0.00 0.00 100 1010.7
20260501222725 80 0 1.7 6.1 0.00 0.00 0.00 100 1011.0
20260501222223 80 0 4.3 8.7 0.00 0.00 0.00 100 1011.0
20260501221719 80 0 5.2 10.4 0.00 0.00 0.00 100 1011.3
20260501221216 80 0 8.7 15.6 0.00 0.00 0.00 100 1011.3
20260501220714 80 0 4.3 10.4 0.00 0.00 0.00 100 1011.3
20260501220211 80 0 4.3 7.8 0.00 0.00 0.00 100 1011.3
20260501215708 80 0 0.9 4.3 0.00 0.00 0.00 100 1011.0
20260501215203 80 0 4.3 14.8 0.00 0.00 0.00 100 1011.0
20260501214658 80 0 7.0 13.0 0.00 0.00 0.00 100 1011.0
20260501214154 80 0 3.5 11.3 0.00 0.00 0.00 100 1011.0
20260501213651 80 0 5.2 8.7 0.00 0.00 0.00 100 1011.0
20260501213147 80 0 0.0 1.7 0.00 0.00 0.00 100 1010.7
20260501212644 80 0 0.9 2.6 0.00 0.00 0.00 100 1010.7
20260501212141 80 0 4.3 9.6 0.00 0.00 0.00 100 1010.7
20260501211637 80 0 1.7 8.7 0.00 0.00 0.00 100 1010.3
20260501211135 80 0 1.7 6.1 0.00 0.00 0.00 100 1010.7
20260501210631 80 0 5.2 9.6 0.00 0.00 0.00 100 1010.7
20260501210128 80 0 0.9 3.5 0.00 0.00 0.00 100 1010.3
20260501205625 80 0 1.7 3.5 0.00 0.00 0.00 100 1010.3
20260501205122 80 0 2.6 5.2 0.00 0.00 0.00 100 1010.3
20260501204619 80 0 2.6 5.2 0.00 0.00 0.00 100 1010.0
20260501204115 80 0 4.3 9.6 0.00 0.00 0.00 100 1010.0
20260501203611 80 0 1.7 7.0 0.00 0.00 0.00 100 1010.0
20260501203109 80 0 0.0 5.2 0.00 0.00 0.00 100 1010.0
20260501202606 80 0 0.0 1.7 0.00 0.00 0.00 100 1010.0
20260501202102 80 0 1.7 7.0 0.00 0.00 0.00 100 1010.0
20260501201559 80 0 2.6 9.6 0.00 0.00 0.00 100 1009.6
20260501201055 80 0 2.6 8.7 0.00 0.00 0.00 100 1009.6
20260501200553 80 0 1.7 5.2 0.00 0.00 0.00 100 1009.6
20260501200050 80 0 0.9 7.0 0.00 0.00 0.00 100 1009.6
20260501195548 80 0 4.3 7.8 0.00 0.00 0.00 100 1009.6
20260501195043 80 0 0.9 5.2 0.00 0.00 0.00 100 1009.6